Culpeper, VA

1:57 PM EST on January 21, 2018 (GMT -0500)
Culpeper Regional

Weather History for KCJR - October, 2011

Change the Weather History Date:

Wednesday, October 19, 2011

  Actual Average (KOMH) Record (KOMH)
Temperature  
Mean Temperature 62 °F -  
Max Temperature 64 °F 67 °F 89 °F (2016)
Min Temperature 60 °F 43 °F 28 °F (1948)
Degree Days  
Heating Degree Days 3    
Growing Degree Days 12 (Base 50)    
Moisture  
Dew Point 62 °F    
Average Humidity 96    
Maximum Humidity 100    
Minimum Humidity 83    
Precipitation  
Precipitation 1.46 in - - ()
Sea Level Pressure  
Sea Level Pressure 29.53 in    
Wind  
Wind Speed 1 mph (NNE)    
Max Wind Speed 7 mph    
Max Gust Speed -    
Visibility 6 miles    
Events Rain , Thunderstorm    
Averages and records for this station are not official NWS values.
T = Trace of Precipitation, MM = Missing Value Source: NWS Daily Summary

Daily Weather History Graph

Daily Weather History Graph

Search for Another Location

Airport or City:

Trip Planner

Search our weather history database for the weather conditions in past years. The results will help you decide how hot, cold, wet, or windy it might be!

Date:

Astronomy

Oct. 19, 2011 Rise Set
Actual Time 7:24 AM EDT 6:28 PM EDT
Civil Twilight 6:57 AM EDT 6:54 PM EDT
Nautical Twilight 6:26 AM EDT 7:25 PM EDT
Astronomical Twilight 5:55 AM EDT 7:56 PM EDT
Moon No Moon Rise 1:51 PM EDT (10/19)
Length of Visible Light 11h 57m
Length of Day
11h 03m
Waning Gibbous, 55% of the Moon is Illuminated
Oct 19
Waning Gibbous
Oct 19
Last Quarter
Oct 26
New
Nov 2
First Quarter
Nov 10
Full

Hourly Weather History & Observations

Time (EDT) Temp. Dew Point Humidity Pressure Visibility Wind Dir Wind Speed Gust Speed Precip Events Conditions
12:15 AM 62.6 °F 60.8 °F 94% 29.75 in 10.0 mi Calm Calm - N/A   Mostly Cloudy
12:35 AM 62.6 °F 60.8 °F 94% 29.74 in 10.0 mi Calm Calm - N/A Rain Light Rain
12:55 AM 62.6 °F 60.8 °F 94% 29.73 in 10.0 mi Calm Calm - N/A   Scattered Clouds
1:15 AM 62.6 °F 60.8 °F 94% 29.72 in 10.0 mi Calm Calm - N/A   Scattered Clouds
1:35 AM 62.6 °F 60.8 °F 94% 29.70 in 10.0 mi Calm Calm - N/A   Scattered Clouds
1:55 AM 62.6 °F 59.0 °F 88% 29.71 in 10.0 mi Calm Calm - N/A Rain Light Rain
2:15 AM 60.8 °F 60.8 °F 100% 29.73 in 10.0 mi Calm Calm - N/A Rain Rain
2:35 AM 60.8 °F 60.8 °F 100% 29.73 in 5.0 mi Calm Calm - 0.02 in Rain Rain
2:55 AM 60.8 °F 60.8 °F 100% 29.70 in 7.0 mi Calm Calm - 0.07 in Rain Rain
3:15 AM 60.8 °F 60.8 °F 100% 29.69 in 4.0 mi NNE 3.5 mph - 0.05 in Rain Rain
3:35 AM 60.8 °F 60.8 °F 100% 29.66 in 3.0 mi Calm Calm - 0.08 in Rain Rain
4:15 AM 60.8 °F 60.8 °F 100% 29.64 in 3.0 mi North 3.5 mph - 0.02 in Rain Light Rain
4:35 AM 60.8 °F 60.8 °F 100% 29.65 in 2.5 mi Calm Calm - 0.03 in Rain Light Rain
4:55 AM 60.8 °F 60.8 °F 100% 29.65 in 1.8 mi Calm Calm - 0.07 in Rain Rain
5:35 AM 62.6 °F 60.8 °F 94% 29.64 in 5.0 mi Calm Calm - 0.16 in Rain Rain
5:55 AM 62.6 °F 60.8 °F 94% 29.64 in 7.0 mi Calm Calm - 0.19 in Rain Rain
6:15 AM 60.8 °F 60.8 °F 100% 29.64 in 5.0 mi Calm Calm - 0.02 in Rain Rain
6:35 AM 60.8 °F 60.8 °F 100% 29.64 in 7.0 mi NNW 3.5 mph - 0.03 in Rain Light Rain
6:55 AM 62.6 °F 60.8 °F 94% 29.63 in 7.0 mi North 5.8 mph - 0.04 in Rain Light Rain
7:15 AM 60.8 °F 60.8 °F 100% 29.63 in 10.0 mi North 3.5 mph - 0.01 in   Light Drizzle
7:35 AM 60.8 °F 60.8 °F 100% 29.62 in 5.0 mi Calm Calm - 0.01 in Rain Light Rain
7:55 AM 60.8 °F 60.8 °F 100% 29.61 in 5.0 mi North 3.5 mph - 0.01 in   Light Drizzle
8:35 AM 62.6 °F 60.8 °F 94% 29.60 in 10.0 mi NNE 3.5 mph - N/A   Overcast
8:55 AM 62.6 °F 60.8 °F 94% 29.60 in 10.0 mi North 3.5 mph - N/A Rain Rain
9:15 AM 62.6 °F 60.8 °F 94% 29.59 in 10.0 mi North 4.6 mph - N/A   Mostly Cloudy
9:35 AM 64.4 °F 60.8 °F 88% 29.57 in 10.0 mi NE 3.5 mph - N/A   Overcast
9:55 AM 64.4 °F 60.8 °F 88% 29.57 in 10.0 mi NNE 3.5 mph - N/A   Overcast
10:35 AM 64.4 °F 60.8 °F 88% 29.55 in 10.0 mi NNE 4.6 mph - N/A   Overcast
10:55 AM 64.4 °F 60.8 °F 88% 29.54 in 10.0 mi NNE 5.8 mph - N/A   Overcast
11:15 AM 64.4 °F 60.8 °F 88% 29.52 in 10.0 mi NNE 4.6 mph - N/A   Overcast
11:35 AM 64.4 °F 59.0 °F 83% 29.52 in 10.0 mi Calm Calm - N/A   Overcast
11:55 AM 64.4 °F 60.8 °F 88% 29.52 in 10.0 mi North 5.8 mph - N/A Rain Light Rain
12:15 PM 62.6 °F 60.8 °F 94% 29.50 in 5.0 mi NE 6.9 mph - 0.03 in Rain Rain
12:55 PM 62.6 °F 62.6 °F 100% 29.49 in 5.0 mi Calm Calm - 0.04 in   Light Drizzle
1:15 PM 62.6 °F 62.6 °F 100% 29.46 in 3.0 mi NE 3.5 mph - N/A Rain Light Rain
1:35 PM 62.6 °F 62.6 °F 100% 29.44 in 4.0 mi Calm Calm - N/A   Light Drizzle
1:55 PM 64.4 °F 62.6 °F 94% 29.43 in 5.0 mi NNE 3.5 mph - N/A   Overcast
2:15 PM 64.4 °F 62.6 °F 94% 29.42 in 7.0 mi NNE 4.6 mph - N/A   Overcast
2:35 PM 64.4 °F 62.6 °F 94% 29.41 in 10.0 mi Calm Calm - N/A   Overcast
2:55 PM 64.4 °F 62.6 °F 94% 29.39 in 7.0 mi Calm Calm - N/A   Overcast
3:15 PM 64.4 °F 62.6 °F 94% 29.39 in 10.0 mi Calm Calm - N/A   Overcast
3:55 PM 64.4 °F 62.6 °F 94% 29.37 in 4.0 mi Calm Calm - N/A   Overcast
4:15 PM 64.4 °F 62.6 °F 94% 29.36 in 3.0 mi Calm Calm - N/A   Overcast
4:55 PM 64.4 °F 64.4 °F 100% 29.34 in 1.8 mi Calm Calm - N/A   Overcast
5:15 PM 64.4 °F 64.4 °F 100% 29.33 in 3.0 mi NNW 3.5 mph - 0.05 in Rain Light Rain
5:35 PM 64.4 °F 64.4 °F 100% 29.32 in 1.5 mi Calm Calm - 0.13 in Rain Heavy Rain
5:55 PM 64.4 °F 64.4 °F 100% 29.32 in 1.0 mi North 3.5 mph - 0.36 in Rain Heavy Rain
6:15 PM 64.4 °F 64.4 °F 100% 29.31 in 3.0 mi Calm Calm - 0.19 in Rain Heavy Rain
6:35 PM 64.4 °F 64.4 °F 100% 29.32 in 2.5 mi Calm Calm - 0.32 in Rain , Thunderstorm Heavy Thunderstorms and Rain
6:55 PM 64.4 °F 64.4 °F 100% 29.31 in 2.0 mi Calm Calm - 0.54 in Rain Heavy Rain
7:15 PM 64.4 °F 64.4 °F 100% 29.30 in 5.0 mi Calm Calm - 0.05 in Rain Light Rain
7:35 PM 64.4 °F 64.4 °F 100% 29.30 in 4.0 mi Calm Calm - 0.05 in   Light Drizzle
7:55 PM 64.4 °F 64.4 °F 100% 29.29 in 4.0 mi Calm Calm - 0.06 in Rain Rain
8:15 PM 64.4 °F 64.4 °F 100% 29.28 in 3.0 mi Calm Calm - N/A   Drizzle
8:35 PM 64.4 °F 64.4 °F 100% 29.28 in 5.0 mi Calm Calm - N/A   Overcast
8:55 PM 64.4 °F 64.4 °F 100% 29.28 in 2.5 mi Calm Calm - N/A Rain Rain
9:15 PM 64.4 °F 64.4 °F 100% 29.28 in 4.0 mi Calm Calm - 0.01 in   Light Drizzle
9:35 PM 64.4 °F 64.4 °F 100% 29.28 in 4.0 mi Calm Calm - 0.01 in   Overcast
9:55 PM 64.4 °F 64.4 °F 100% 29.29 in 3.0 mi Calm Calm - 0.01 in   Overcast
10:15 PM 64.4 °F 64.4 °F 100% 29.30 in 2.0 mi Calm Calm - N/A   Drizzle
10:35 PM 64.4 °F 64.4 °F 100% 29.29 in 3.0 mi Calm Calm - N/A Rain Rain
10:55 PM 64.4 °F 62.6 °F 94% 29.29 in 3.0 mi Calm Calm - N/A   Drizzle
11:15 PM 64.4 °F 62.6 °F 94% 29.29 in 7.0 mi Calm Calm - N/A   Overcast
11:35 PM 64.4 °F 64.4 °F 100% 29.28 in 5.0 mi South 4.6 mph - N/A   Overcast
11:55 PM 64.4 °F 64.4 °F 100% 29.29 in 10.0 mi Calm Calm - N/A   Overcast